|
NORAD ID: 14176 Int'l Code: 1983-069F
Perigee: 1,470.1 km
Apogee: 1,488.3 km
Inclination: 74.0 °
Period: 115.4 minutes
Semi major axis: 7850 km
Launch date: July 6, 1983
Source: Commonwealth of Independent States (former USSR) (CIS)
Two Line Element Set (TLE):
1 14176U 83069F 13145.45213689 -.00000002 00000-0 95704-4 0 3803
2 14176 074.0259 240.1360 0011542 113.0761 013.3450 12.48195552362038
Source:
NASA's NSSDC Master Catalog entry for COSMOS 1478
|